Date String (YYYY-MM-DD hh:mm:ss) UTC,Instrument flags,Ambient pressure (hPa),Sample flow (lpm),Bypass flow (lpm),Sample temperature (°C),Ambient temperature (°C),ASC tube jacket temperature (°C),LED temperature (°C),Box temperature (°C),Sample RH (%),Span deviation,Mass concentration (μg/m³),Mass concentration (μg/m³),Mass concentration (μg/m³)
DateTimeUTC,F1_M11,P_M11,Q1_M11,Q2_M11,T1_M11,T2_M11,T3_M11,T4_M11,T5_M11,U1_M11,ZSPAN_M11,X2_M11,X0_M11,X1_M11
2022-09-26 16:00:00,,0833.3,5.01,0.00,30.8,27.7,00.0,39.5,32.4,18.0,0000.0,0005.80,0010.81,0005.16
2022-09-26 16:01:00,,0833.3,5.00,0.00,30.7,28.1,00.0,39.4,32.3,18.1,0000.0,0005.72,0010.35,0005.13
2022-09-26 16:02:00,,0833.4,5.01,0.00,30.7,28.4,00.0,39.4,32.3,18.3,0000.0,0005.66,0010.39,0005.10
2022-09-26 16:03:00,,0833.3,4.99,0.00,30.7,28.6,00.0,39.4,32.4,18.2,0000.0,0005.67,0010.86,0005.08
2022-09-26 16:04:00,,0833.4,5.01,0.00,30.6,28.7,00.0,39.4,32.4,17.8,0000.0,0005.62,0011.25,0005.04
2022-09-26 16:05:00,,0833.4,5.00,0.00,30.6,28.9,00.0,39.4,32.4,18.0,0000.0,0005.55,0011.08,0004.99
2022-09-26 16:06:00,,0833.4,4.99,0.00,30.6,29.0,00.0,39.4,32.4,18.2,0000.0,0005.48,0010.84,0004.96
2022-09-26 16:07:00,,0833.5,5.01,0.00,30.7,29.2,00.0,39.4,32.4,18.6,0000.0,0005.45,0010.50,0004.93
2022-09-26 16:08:00,,0833.5,5.00,0.00,30.7,29.3,00.0,39.4,32.5,18.6,0000.0,0005.43,0010.55,0004.93
2022-09-26 16:09:00,,0833.4,5.00,0.00,30.7,29.3,00.0,39.4,32.5,18.1,0000.0,0005.43,0010.71,0004.92
2022-09-26 16:10:00,,0833.4,5.02,0.00,30.7,29.4,00.0,39.4,32.5,17.9,0000.0,0005.39,0011.04,0004.90
2022-09-26 16:11:00,,0833.4,4.99,0.00,30.7,29.5,00.0,39.4,32.5,18.2,0000.0,0005.36,0011.32,0004.87
2022-09-26 16:12:00,,0833.4,5.01,0.00,30.7,29.5,00.0,39.4,32.6,18.5,0000.0,0005.39,0011.39,0004.86
2022-09-26 16:13:00,,0833.4,4.99,0.00,30.8,29.6,00.0,39.4,32.6,18.6,0000.0,0005.37,0010.88,0004.85
2022-09-26 16:14:00,,0833.5,5.02,0.00,30.8,29.6,00.0,39.4,32.6,18.6,0000.0,0005.36,0010.36,0004.84
2022-09-26 16:15:00,,0833.4,4.99,0.00,30.8,29.6,00.0,39.4,32.7,18.5,0000.0,0005.39,0010.15,0004.86
2022-09-26 16:16:00,,0833.4,5.00,0.00,30.8,29.7,00.0,39.4,32.7,18.2,0000.0,0005.42,0010.43,0004.86
2022-09-26 16:17:00,,0833.4,4.99,0.00,30.8,29.7,00.0,39.5,32.7,18.0,0000.0,0005.40,0010.63,0004.86
2022-09-26 16:18:00,,0833.4,5.01,0.00,30.9,29.3,00.0,39.5,32.7,18.2,0000.0,0005.37,0010.14,0004.85
2022-09-26 16:19:00,,0833.4,5.00,0.00,30.9,27.9,00.0,39.4,32.6,18.5,0000.0,0005.36,0010.17,0004.82
2022-09-26 16:20:00,,0833.4,5.00,0.00,30.8,27.4,00.0,39.4,32.5,18.5,0000.0,0005.33,0010.34,0004.81
2022-09-26 16:21:00,,0833.5,4.99,0.00,30.7,27.6,00.0,39.4,32.4,18.3,0000.0,0005.32,0009.87,0004.82
2022-09-26 16:22:00,,0833.4,5.00,0.00,30.7,27.9,00.0,39.3,32.4,18.3,0000.0,0005.30,0009.40,0004.83
2022-09-26 16:23:00,,0833.4,5.00,0.00,30.6,28.2,00.0,39.3,32.3,17.9,0000.0,0005.26,0009.51,0004.83
2022-09-26 16:24:00,,0833.4,5.00,0.00,30.6,28.4,00.0,39.3,32.3,17.5,0000.0,0005.25,0009.75,0004.81
2022-09-26 16:25:00,,0833.4,4.99,0.00,30.6,28.7,00.0,39.3,32.3,17.5,0000.0,0005.19,0009.69,0004.78
2022-09-26 16:26:00,,0833.4,5.00,0.00,30.6,28.8,00.0,39.3,32.4,17.1,0000.0,0005.18,0009.58,0004.75
2022-09-26 16:27:00,,0833.4,4.98,0.00,30.6,29.0,00.0,39.3,32.4,16.9,0000.0,0005.17,0009.57,0004.72
2022-09-26 16:28:00,,0833.5,5.01,0.00,30.6,29.1,00.0,39.3,32.4,16.9,0000.0,0005.16,0010.14,0004.70
2022-09-26 16:29:00,,0833.4,4.99,0.00,30.6,29.2,00.0,39.3,32.4,16.4,0000.0,0005.18,0010.93,0004.68
2022-09-26 16:30:00,,0833.4,5.01,0.00,30.6,29.3,00.0,39.3,32.5,16.8,0000.0,0005.13,0010.82,0004.65
2022-09-26 16:31:00,,0833.5,4.99,0.00,30.7,29.4,00.0,39.3,32.5,16.6,0000.0,0005.10,0010.34,0004.63
2022-09-26 16:32:00,,0833.5,5.01,0.00,30.7,29.4,00.0,39.3,32.5,16.3,0000.0,0005.06,0010.39,0004.60
2022-09-26 16:33:00,,0833.5,4.99,0.00,30.7,29.5,00.0,39.3,32.5,16.9,0000.0,0005.06,0010.67,0004.57
2022-09-26 16:34:00,,0833.4,5.01,0.00,30.7,29.5,00.0,39.4,32.6,16.6,0000.0,0005.07,0011.02,0004.55
2022-09-26 16:35:00,,0833.4,5.01,0.00,30.7,28.5,00.0,39.3,32.5,16.4,0000.0,0005.04,0010.81,0004.53
2022-09-26 16:36:00,,0833.4,5.00,0.00,30.7,27.4,00.0,39.3,32.4,16.1,0000.0,0005.03,0010.77,0004.51
2022-09-26 16:37:00,,0833.4,4.99,0.00,30.6,27.3,00.0,39.3,32.4,16.0,0000.0,0004.99,0010.58,0004.50
2022-09-26 16:38:00,,0833.4,4.99,0.00,30.6,27.6,00.0,39.2,32.2,16.5,0000.0,0004.95,0010.34,0004.49
2022-09-26 16:39:00,,0833.4,5.00,0.00,30.5,27.9,00.0,39.2,32.2,16.3,0000.0,0004.93,0009.48,0004.48
2022-09-26 16:40:00,,0833.5,5.00,0.00,30.5,28.2,00.0,39.2,32.2,15.4,0000.0,0004.87,0008.84,0004.45
2022-09-26 16:41:00,,0833.4,5.00,0.00,30.5,28.5,00.0,39.2,32.2,15.3,0000.0,0004.84,0008.99,0004.42
2022-09-26 16:42:00,,0833.4,5.01,0.00,30.4,28.7,00.0,39.2,32.2,15.4,0000.0,0004.83,0008.97,0004.38
2022-09-26 16:43:00,,0833.4,4.99,0.00,30.5,28.8,00.0,39.2,32.3,16.2,0000.0,0004.84,0009.27,0004.35
2022-09-26 16:44:00,,0833.4,5.01,0.00,30.5,29.0,00.0,39.2,32.3,17.3,0000.0,0004.84,0009.25,0004.35
2022-09-26 16:45:00,,0833.4,5.00,0.00,30.5,29.1,00.0,39.2,32.3,16.8,0000.0,0004.76,0008.70,0004.33
2022-09-26 16:46:00,,0833.5,4.99,0.00,30.5,29.2,00.0,39.2,32.3,15.8,0000.0,0004.72,0008.61,0004.29
2022-09-26 16:47:00,,0833.4,5.01,0.00,30.5,29.3,00.0,39.2,32.4,16.2,0000.0,0004.71,0008.66,0004.26
2022-09-26 16:48:00,,0833.4,4.99,0.00,30.5,29.4,00.0,39.2,32.4,15.6,0000.0,0004.70,0008.68,0004.25
2022-09-26 16:49:00,,0833.4,5.01,0.00,30.6,29.4,00.0,39.2,32.4,16.6,0000.0,0004.68,0008.78,0004.22
2022-09-26 16:50:00,,0833.4,4.99,0.00,30.6,28.9,00.0,39.2,32.5,16.8,0000.0,0004.66,0008.78,0004.21
2022-09-26 16:51:00,,0833.4,5.01,0.00,30.6,27.5,00.0,39.2,32.3,17.2,0000.0,0004.69,0008.91,0004.21
2022-09-26 16:52:00,,0833.4,5.00,0.00,30.5,27.0,00.0,39.1,32.2,18.0,0000.0,0004.73,0008.67,0004.25
2022-09-26 16:53:00,,0833.4,4.99,0.00,30.4,27.2,00.0,39.1,32.1,18.4,0000.0,0004.79,0008.75,0004.30
2022-09-26 16:54:00,,0833.4,5.00,0.00,30.4,27.5,00.0,39.1,32.0,18.4,0000.0,0004.81,0008.47,0004.34
2022-09-26 16:55:00,,0833.4,4.98,0.00,30.3,27.8,00.0,39.1,32.0,19.1,0000.0,0004.85,0008.32,0004.39
2022-09-26 16:56:00,,0833.4,5.00,0.00,30.3,28.1,00.0,39.0,32.1,19.4,0000.0,0004.90,0008.47,0004.41
2022-09-26 16:57:00,,0833.5,5.01,0.00,30.3,28.4,00.0,39.0,32.1,19.8,0000.0,0004.95,0008.43,0004.45
2022-09-26 16:58:00,,0833.4,4.98,0.00,30.3,28.6,00.0,39.0,32.1,19.6,0000.0,0005.01,0008.40,0004.52
2022-09-26 16:59:00,,0833.4,5.02,0.00,30.3,28.8,00.0,39.0,32.2,18.7,0000.0,0005.07,0008.82,0004.56
